Location: Geçitköy
(36.7327°N, 29.8010°E)
Time: 18:53:53
(UTC+00:00)

CARTOSAT-1 - Pass Details

Date: 12 January 2026
Orbit: 594 x 598 km, 97.5° (Epoch: 11 February)

Event Time Altitude Azimuth Distance (km) Brightness Sun altitude
Rises 16:49:25 0° 164° (SSE) 2,827 6.9 -20.5°
Reaches altitude 10° 16:51:35 10° 163° (SSE) 1,929 6.0 -20.9°
Maximum altitude 16:55:46 79° 77° (ENE) 613 3.3 -21.7°
Drops below altitude 10° 16:59:59 10° 351° (N) 1,942 6.1 -22.6°
Sets 17:02:10 0° 350° (N) 2,849 7.0 -23.0°
